FLOCK 3P-79

Last updated on Wed Feb 14 2018 16:20:25 GMT+0000 (Coordinated Universal Time)

1 41984U 17008AN 18045.48389025 .00001761 00000-0 75866-4 0 9990 2 41984 97.4683 111.1714 0009556 74.0644 286.1646 15.23889216 55267
UTC large
Height (km)
Speed (km/s)
/
Latitude / Longitude
Inclination (degrees)
Orbital Period (minutes)
Azimuth
Elevation
Range (km)
Doppler Factor

Next 0 passes for location: London (51.5072 / 0.1276)

Sorry there are no passes over London.